This is the latest recevied weather packets stored in our database for station/object KF6ILA. If no packets are shown the sender has not sent any weather packets the latest 10 day(s).
| Time | Temp. | Humidity | Pressure | Rain* | Wind** | Luminosity | Snow |
|---|---|---|---|---|---|---|---|
| 1788047009 | 28.33° C | 44% | 1014.4 hPa | 0 mm | - | 499 W/m² | - |
| 1788046712 | 28.89° C | 43% | 1014.3 hPa | 0 mm | - | 515 W/m² | - |
| 1788046415 | 29.44° C | 43% | 1014.5 hPa | 0 mm | - | 534 W/m² | - |
| 1788046118 | 28.89° C | 43% | 1014.6 hPa | 0 mm | - | 548 W/m² | - |
| 1788045821 | 28.89° C | 43% | 1014.5 hPa | 0 mm | - | 561 W/m² | - |
| 1788045524 | 29.44° C | 42% | 1014.5 hPa | 0 mm | - | 578 W/m² | - |
| 1788045227 | 29.44° C | 42% | 1014.6 hPa | 0 mm | - | 594 W/m² | - |
| 1788044685 | 29.44° C | 42% | 1015.5 hPa | 0 mm | - | 642 W/m² | - |
| 1788044685 | 29.44° C | 41% | 1015.5 hPa | 0 mm | - | 657 W/m² | - |
| 1788044685 | 30° C | 41% | 1015.7 hPa | 0 mm | - | 684 W/m² | - |
| 1788044685 | 30° C | 41% | 1015.7 hPa | 0 mm | - | 698 W/m² | - |
| 1788044685 | 30° C | 41% | 1016.1 hPa | 0 mm | - | 751 W/m² | - |
| 1788044685 | 30.56° C | 40% | 1016.1 hPa | 0 mm | - | 761 W/m² | - |
| 1788044633 | 29.44° C | 42% | 1014.8 hPa | 0 mm | - | 626 W/m² | - |
| 1788044336 | 29.44° C | 42% | 1015.5 hPa | 0 mm | - | 642 W/m² | - |
| 1788044039 | 29.44° C | 41% | 1015.5 hPa | 0 mm | - | 657 W/m² | - |
| 1788043742 | 30° C | 42% | 1015.5 hPa | 0 mm | - | 671 W/m² | - |
| 1788043445 | 30° C | 41% | 1015.7 hPa | 0 mm | - | 684 W/m² | - |
| 1788043148 | 30° C | 41% | 1015.7 hPa | 0 mm | - | 698 W/m² | - |
| 1788042851 | 30.56° C | 40% | 1015.9 hPa | 0 mm | - | 712 W/m² | - |
| 1788042554 | 30.56° C | 41% | 1016 hPa | 0 mm | - | 724 W/m² | - |
| 1788041960 | 30° C | 41% | 1016.1 hPa | 0 mm | - | 751 W/m² | - |
| 1788041663 | 30.56° C | 40% | 1016.1 hPa | 0 mm | - | 761 W/m² | - |
| 1788040772 | 31.11° C | 38% | 1016.1 hPa | 0 mm | - | 802 W/m² | - |
| 1788039765 | 31.67° C | 36% | 1016.9 hPa | 0 mm | - | 919 W/m² | - |
* Rain latest hour (hover to see other rain measurements)
** Current wind speed in m/s (hover to see current wind gust speed)